sat.trackr.live / text

‹ back to catalog

STARLINK-5885

NORAD 56352 · 2023-058AM

PAYLOAD ACTIVE UNKNOWN

§ Identity

Operator
Country
US
Launch date
2023-04-27
Launch site
AFWTR
Launch vehicle
Mass (kg)
RCS (m²)

Purposes: comms

External: N2YO · Heavens-Above · Gunter

§ Orbital elements

Epoch: 2026-09-20T22:00:03.000096Z

Period
94.61 min
Inclination
97.2831°
Eccentricity
0.0001109
Mean motion
15.21979240 rev/d
Perigee alt
499.1 km
Apogee alt
500.6 km
Semi-major
6,878.0 km
B*
3.7108e-3
RAAN
257.7924°
Arg perigee
50.5292°
Mean anomaly
82.7085°
Rev number
578

§ Raw data

STARLINK-58851 56352U 23058AM  26263.91670139  .00085519  00000+0  37108-2 0  99922 56352  97.2831 257.7924 0001109  50.5292  82.7085 15.21979240  5783

JSON: /api/v1/satellites/56352 · /tle

For live sub-satellite position, see the globe view (requires WebGL).

§ Visibility from observer

Set your observer location to see the next 7 days of passes ≥ 10°. The values pass through the URL so the page stays shareable.

No JS? Fill the form by hand. The geolocation button needs JavaScript.